Location: Cluj-Napoca
(46.7712°N, 23.6236°E)
Time: 13:23:27
(UTC+02:00)

ISS - Pass Details

Date: 26 January 2020
Orbit: 415 x 423 km, 51.6° (Epoch: 27 February)

Event Time Altitude Azimuth Distance (km) Brightness Sun altitude
Rises 19:23:13 0° 271° (W) 2,378 1.6 -21.2°
Reaches altitude 10° 19:25:25 10° 279° (W) 1,513 0.1 -21.5°
Enters shadow 19:28:15 37° 332° (NNW) 676 -2.6 -22.0°
